TimeCST,TemperatureF,Dew PointF,Humidity,Sea Level PressureIn,VisibilityMPH,Wind Direction,Wind SpeedMPH,Gust SpeedMPH,PrecipitationIn,Events,Conditions,WindDirDegrees,DateUTC
12:13 AM,35.6,28.4,75,29.92,10.0,WNW,18.4,24.2,N/A,,Overcast,300,2013-11-18 06:13:00
12:33 AM,35.6,28.4,75,29.93,10.0,NW,16.1,21.9,N/A,,Overcast,310,2013-11-18 06:33:00
12:53 AM,35.6,28.4,75,29.92,10.0,NW,19.6,26.5,N/A,,Overcast,310,2013-11-18 06:53:00
1:13 AM,35.6,28.4,75,29.93,10.0,WNW,20.7,26.5,N/A,,Overcast,300,2013-11-18 07:13:00
1:33 AM,35.6,28.4,75,29.93,10.0,WNW,19.6,23.0,N/A,,Overcast,300,2013-11-18 07:33:00
1:53 AM,35.6,28.4,75,29.94,10.0,NW,15.0,24.2,N/A,,Overcast,310,2013-11-18 07:53:00
2:13 AM,35.6,26.6,70,29.95,10.0,WNW,20.7,26.5,N/A,,Overcast,300,2013-11-18 08:13:00
2:33 AM,35.6,28.4,75,29.96,10.0,WNW,17.3,23.0,N/A,,Overcast,300,2013-11-18 08:33:00
2:53 AM,35.6,26.6,70,29.97,10.0,NW,16.1,23.0,N/A,,Overcast,310,2013-11-18 08:53:00
3:13 AM,33.8,26.6,75,29.97,10.0,NW,15.0,19.6,N/A,,Mostly Cloudy,310,2013-11-18 09:13:00
3:33 AM,32.0,26.6,80,29.99,10.0,WNW,15.0,19.6,N/A,,Scattered Clouds,290,2013-11-18 09:33:00
3:53 AM,32.0,26.6,80,30.00,10.0,WNW,15.0,-,N/A,,Clear,290,2013-11-18 09:53:00
4:13 AM,32.0,26.6,80,30.00,10.0,WNW,18.4,21.9,N/A,,Clear,290,2013-11-18 10:13:00
4:33 AM,32.0,26.6,80,30.01,10.0,NW,18.4,25.3,N/A,,Clear,310,2013-11-18 10:33:00
4:53 AM,32.0,24.8,75,30.02,10.0,WNW,15.0,25.3,N/A,,Mostly Cloudy,300,2013-11-18 10:53:00
5:13 AM,32.0,24.8,75,30.03,10.0,WNW,19.6,29.9,N/A,,Overcast,300,2013-11-18 11:13:00
5:34 AM,32.0,26.6,80,30.03,10.0,NW,13.8,-,N/A,,Overcast,310,2013-11-18 11:34:00
5:53 AM,32.0,24.8,75,30.04,10.0,WNW,17.3,-,N/A,,Mostly Cloudy,300,2013-11-18 11:53:00
6:13 AM,32.0,24.8,75,30.05,10.0,NW,12.7,-,N/A,,Clear,310,2013-11-18 12:13:00
6:34 AM,32.0,24.8,75,30.06,10.0,NW,12.7,-,N/A,,Clear,310,2013-11-18 12:34:00
6:53 AM,30.2,24.8,80,30.07,10.0,WNW,11.5,-,N/A,,Clear,300,2013-11-18 12:53:00
7:13 AM,30.2,24.8,80,30.08,10.0,WNW,13.8,-,N/A,,Clear,300,2013-11-18 13:13:00
7:34 AM,30.2,24.8,80,30.09,10.0,WNW,13.8,-,N/A,,Clear,300,2013-11-18 13:34:00
7:53 AM,30.2,24.8,80,30.10,10.0,WNW,12.7,-,N/A,,Clear,300,2013-11-18 13:53:00
8:13 AM,32.0,24.8,75,30.11,10.0,NW,12.7,-,N/A,,Clear,310,2013-11-18 14:13:00
8:33 AM,32.0,24.8,75,30.12,10.0,NW,12.7,-,N/A,,Clear,310,2013-11-18 14:33:00
8:53 AM,32.0,24.8,75,30.12,10.0,NW,13.8,-,N/A,,Clear,310,2013-11-18 14:53:00
9:13 AM,32.0,24.8,75,30.13,10.0,NW,15.0,-,N/A,,Clear,310,2013-11-18 15:13:00
9:34 AM,32.0,23.0,69,30.14,10.0,NW,18.4,24.2,N/A,,Clear,310,2013-11-18 15:34:00
9:53 AM,33.8,24.8,70,30.15,10.0,NW,17.3,21.9,N/A,,Clear,310,2013-11-18 15:53:00
10:13 AM,33.8,24.8,70,30.16,10.0,NW,17.3,23.0,N/A,,Clear,310,2013-11-18 16:13:00
10:33 AM,33.8,24.8,70,30.17,10.0,NW,17.3,-,N/A,,Clear,310,2013-11-18 16:33:00
10:53 AM,35.6,24.8,65,30.18,10.0,NW,13.8,19.6,N/A,,Clear,310,2013-11-18 16:53:00
11:13 AM,35.6,24.8,65,30.19,10.0,WNW,12.7,-,N/A,,Clear,290,2013-11-18 17:13:00
11:33 AM,35.6,24.8,65,30.18,10.0,NW,13.8,17.3,N/A,,Clear,310,2013-11-18 17:33:00
11:53 AM,37.4,26.6,65,30.18,10.0,West,11.5,16.1,N/A,,Clear,280,2013-11-18 17:53:00
12:13 PM,37.4,26.6,65,30.18,10.0,NW,12.7,-,N/A,,Clear,310,2013-11-18 18:13:00
12:33 PM,39.2,24.8,56,30.18,10.0,WNW,13.8,-,N/A,,Clear,290,2013-11-18 18:33:00
12:53 PM,39.2,24.8,56,30.17,10.0,WNW,12.7,18.4,N/A,,Clear,290,2013-11-18 18:53:00
1:13 PM,41.0,24.8,53,30.17,10.0,WNW,12.7,18.4,N/A,,Clear,290,2013-11-18 19:13:00
1:33 PM,41.0,24.8,53,30.17,10.0,NW,11.5,18.4,N/A,,Clear,310,2013-11-18 19:33:00
1:53 PM,41.0,24.8,53,30.17,10.0,WNW,12.7,17.3,N/A,,Clear,300,2013-11-18 19:53:00
2:13 PM,41.0,24.8,53,30.17,10.0,WNW,13.8,-,N/A,,Clear,290,2013-11-18 20:13:00
2:33 PM,42.8,24.8,49,30.17,10.0,NW,9.2,-,N/A,,Clear,310,2013-11-18 20:33:00
2:53 PM,42.8,24.8,49,30.18,10.0,WNW,10.4,-,N/A,,Clear,300,2013-11-18 20:53:00
3:13 PM,42.8,24.8,49,30.17,10.0,NW,10.4,-,N/A,,Clear,310,2013-11-18 21:13:00
3:33 PM,42.8,24.8,49,30.17,10.0,NW,8.1,-,N/A,,Clear,320,2013-11-18 21:33:00
3:53 PM,41.0,24.8,53,30.17,10.0,NW,6.9,-,N/A,,Clear,320,2013-11-18 21:53:00
4:13 PM,41.0,26.6,57,30.18,10.0,NW,5.8,-,N/A,,Clear,310,2013-11-18 22:13:00
4:33 PM,37.4,24.8,60,30.18,10.0,NNW,4.6,-,N/A,,Clear,340,2013-11-18 22:33:00
4:53 PM,35.6,26.6,70,30.18,10.0,Calm,Calm,-,N/A,,Clear,0,2013-11-18 22:53:00
5:13 PM,37.4,24.8,60,30.19,10.0,ENE,3.5,-,N/A,,Clear,60,2013-11-18 23:13:00
5:33 PM,35.6,24.8,65,30.18,10.0,NE,4.6,-,N/A,,Clear,40,2013-11-18 23:33:00
5:53 PM,33.8,23.0,65,30.19,10.0,ENE,4.6,-,N/A,,Clear,70,2013-11-18 23:53:00
6:14 PM,32.0,23.0,69,30.19,10.0,East,5.8,-,N/A,,Clear,80,2013-11-19 00:14:00
6:33 PM,32.0,23.0,69,30.20,10.0,East,5.8,-,N/A,,Clear,90,2013-11-19 00:33:00
6:53 PM,30.2,23.0,75,30.20,10.0,East,3.5,-,N/A,,Clear,90,2013-11-19 00:53:00
7:13 PM,32.0,23.0,69,30.21,10.0,ESE,4.6,-,N/A,,Clear,120,2013-11-19 01:13:00
7:33 PM,30.2,23.0,75,30.21,10.0,ESE,5.8,-,N/A,,Clear,120,2013-11-19 01:33:00
7:53 PM,28.4,21.2,74,30.22,10.0,ESE,5.8,-,N/A,,Clear,120,2013-11-19 01:53:00
8:13 PM,26.6,21.2,80,30.22,10.0,East,5.8,-,N/A,,Clear,100,2013-11-19 02:13:00
8:33 PM,28.4,21.2,74,30.22,10.0,ESE,5.8,-,N/A,,Clear,110,2013-11-19 02:33:00
8:53 PM,28.4,23.0,80,30.22,10.0,SE,5.8,-,N/A,,Clear,130,2013-11-19 02:53:00
9:13 PM,30.2,23.0,75,30.22,10.0,SE,6.9,-,N/A,,Clear,140,2013-11-19 03:13:00
9:33 PM,32.0,23.0,69,30.22,10.0,SE,5.8,-,N/A,,Clear,140,2013-11-19 03:33:00
9:53 PM,30.2,23.0,75,30.21,10.0,SE,5.8,-,N/A,,Clear,130,2013-11-19 03:53:00
10:13 PM,28.4,23.0,80,30.22,10.0,SE,5.8,-,N/A,,Clear,140,2013-11-19 04:13:00
10:33 PM,28.4,21.2,74,30.21,10.0,SE,5.8,-,N/A,,Clear,130,2013-11-19 04:33:00
10:53 PM,28.4,21.2,74,30.20,10.0,ESE,8.1,-,N/A,,Clear,120,2013-11-19 04:53:00
11:13 PM,26.6,21.2,80,30.21,10.0,SE,8.1,-,N/A,,Clear,130,2013-11-19 05:13:00
11:33 PM,30.2,23.0,75,30.21,10.0,SE,8.1,-,N/A,,Clear,130,2013-11-19 05:33:00
11:53 PM,32.0,23.0,69,30.21,10.0,SE,6.9,-,N/A,,Clear,140,2013-11-19 05:53:00